Location: Madrid
(40.4000°N, 3.6830°W)
Time: 22:53:06
(UTC+02:00)

ISS - Pass Details

Date: 20 July 2017
Orbit: 400 x 408 km, 51.6° (Epoch: 24 July)

Event Time Altitude Azimuth Distance (km) Brightness Sun altitude
Rises 04:25:51 0° 308° (NW) 2,314 0.1 -22.4°
Reaches altitude 10° 04:28:58 10° 341° (NNW) 1,456 -0.5 -22.1°
Maximum altitude 04:30:22 12° 6° (N) 1,332 -0.4 -22.0°
Drops below altitude 10° 04:31:46 10° 32° (NNE) 1,457 0.1 -21.8°
Sets 04:34:54 0° 65° (ENE) 2,318 1.0 -21.5°
